Location: Unspecified
(0.0000°N, 0.0000°E)
Time: 21:32:25
(UTC+02:00)

Resurs 01 Rocket - Visible Passes

Search period start: 17 September 2014 00:00
Search period end: 27 September 2014 00:00
Orbit: 636 x 647 km, 98.2° (Epoch: 17 September)

Date Brightness Start Highest point End Pass type
(mag) Time Alt. Az. Time Alt. Az. Time Alt. Az.
17 Sep 4.5 07:11:38 10° NE 07:15:01 22° ESE 07:18:24 10° SSE visible
17 Sep 5.1 21:02:04 10° WSW 21:03:12 11° WSW 21:04:20 10° W visible
19 Sep 2.6 20:10:13 10° S 20:14:32 53° WSW 20:18:48 10° NNW visible
20 Sep 4.2 20:34:42 10° SSW 20:38:17 25° WSW 20:41:52 10° NW visible
21 Sep 4.6 07:10:34 10° NE 07:13:51 20° ESE 07:17:09 10° SSE visible
21 Sep 5.0 21:00:33 10° WSW 21:02:02 12° WSW 21:03:31 10° W visible
24 Sep 4.1 20:33:27 10° SSW 20:37:07 26° WSW 20:40:46 10° NW visible
25 Sep 4.7 07:09:30 10° ENE 07:12:41 19° ESE 07:15:52 10° SSE visible
25 Sep 5.0 20:59:05 10° SW 21:00:51 12° WSW 21:02:37 10° WNW visible
